Home   Weather   Bristol   Past weeks

Flag for United Kingdom Past Weather in Bristol, England, United Kingdom — Yesterday and Last 2 Weeks

Now
39 °F

Passing clouds.


Feels Like: 34 °F
Forecast: 34 / 51 °F
Wind: 7 mph from Northwest

Location: Bristol / Lulsgate

Current Time: Apr 25, 2017 at 7:31:35 pm

Latest Report: Apr 25, 2017 at 6:50 pm


Visibility: N/A

Pressure: 29.98 "Hg

Humidity: 81%

Dew Point: 34 °F

Location of BristolLocation

Past Weather in Bristol — Graph

°F

Bristol Temperature Yesterday

Maximum temperature yesterday: 54 °F (at 3:20 pm)
Minimum temperature yesterday: 41 °F (at 10:50 pm)
Average temperature yesterday: 48 °F

High & Low Weather Summary for the Past Weeks

 TemperatureHumidityPressure
High59 °F (Apr 22, 1:50 pm)100% (Apr 12, 10:50 pm)30.63 "Hg (Apr 12, 10:50 pm)
Low34 °F (Apr 19, 4:50 am)38% (Apr 19, 3:20 pm)29.95 "Hg (Apr 24, 3:50 pm)
Average48 °F76%30.27 "Hg
* Reported Apr 10 6:20 pm — Apr 25 6:20 pm, Bristol, Weather by CustomWeather, © 2017

Note: Actual official high and low records may vary slightly from our data, if they occured in-between our weather recording intervals... More about our weather records

Advertising

Bristol Weather History for the Previous 24 Hours

Scroll right to see more
 ConditionsComfort  
Time TempWeatherWind HumidityBarometerVisibility
6:20 pm
Tue, Apr 25
41 °FScattered showers. Scattered clouds.12 mph76%29.98 "HgN/A
5:50 pm46 °FScattered clouds.13 mph53%29.95 "HgN/A
5:20 pm45 °FQuite cool.7 mph53%29.95 "HgN/A
4:50 pm45 °FPassing clouds.8 mph57%29.98 "HgN/A
3:50 pm46 °FCool.14 mph43%29.95 "HgN/A
3:20 pm48 °FPartly sunny.14 mph43%29.95 "HgN/A
2:50 pm48 °FScattered showers. Scattered clouds.12 mph40%29.95 "HgN/A
2:20 pm50 °FCool.10 mph43%29.98 "HgN/A
1:50 pm50 °FPassing clouds.13 mph40%29.98 "HgN/A
1:20 pm48 °FScattered clouds.13 mph43%29.98 "HgN/A
12:50 pm46 °FPartly sunny.14 mph46%29.98 "HgN/A
12:20 pm46 °FPartly sunny.14 mph50%29.98 "HgN/A
11:50 am48 °FScattered clouds.13 mph43%29.98 "HgN/A
11:20 am45 °FPartly sunny.14 mph53%29.98 "HgN/A
10:50 am45 °FPartly sunny.14 mph57%29.98 "HgN/A
10:20 am43 °FScattered clouds.15 mph57%29.98 "HgN/A
9:50 am41 °FPartly sunny.12 mph66%29.98 "HgN/A
9:20 am43 °FPassing clouds.10 mph61%29.98 "HgN/A
8:50 am41 °FPartly sunny.12 mph70%29.98 "HgN/A
8:20 am41 °FPartly sunny.9 mph70%29.98 "HgN/A
7:50 am39 °FMostly cloudy.7 mph75%29.95 "HgN/A
7:20 am39 °FMostly cloudy.8 mph75%29.95 "HgN/A
6:50 am37 °FScattered clouds.9 mph81%29.95 "HgN/A
6:20 am37 °FPartly sunny.8 mph75%29.95 "HgN/A
5:50 am37 °FPassing clouds.10 mph70%29.95 "HgN/A
4:50 am36 °FOvercast.8 mph70%29.95 "HgN/A
3:20 am34 °FChilly.8 mph65%29.95 "HgN/A
2:50 am34 °FChilly.7 mph65%29.98 "HgN/A
2:20 am36 °FChilly.10 mph60%29.98 "HgN/A
1:50 am37 °FChilly.12 mph56%29.98 "HgN/A
1:20 am37 °FChilly.9 mph56%29.98 "HgN/A
12:50 am37 °FChilly.10 mph56%29.98 "HgN/A
11:50 pm
Mon, Apr 24
41 °FQuite cool.9 mph53%29.98 "HgN/A
11:20 pm41 °FQuite cool.8 mph53%29.98 "HgN/A
10:50 pm41 °FQuite cool.10 mph49%29.98 "HgN/A
10:20 pm43 °FQuite cool.12 mph49%29.98 "HgN/A
9:50 pm43 °FQuite cool.16 mph46%29.98 "HgN/A
9:20 pm45 °FPassing clouds.12 mph61%29.98 "HgN/A
8:50 pm45 °FPassing clouds.14 mph66%29.95 "HgN/A
8:20 pm46 °FCloudy.10 mph76%29.95 "HgN/A
7:50 pm46 °FScattered clouds.12 mph76%29.95 "HgN/A
7:20 pm48 °FBroken clouds.15 mph71%29.95 "HgN/A
Weather by CustomWeather, © 2017

See weather overviewHow to use our weather pages